Regional Weather Roundup
Issued by NWS

Home | Current Version | Previous Version | Text Only | Print | Product List | Glossary On
Versions: 1 2 3 4 5 6 7 8 9 10 11 12 13 14 15 16 17 18 19 20 21 22 23 24 25 26 27 28 29 30 31 32 33 34 35 36 37 38 39 40 41 42 43 44 45 46 47 48 49 50
000
ASUS45 KPSR 010410
RWRAZ

ARIZONA HOURLY REGIONAL WEATHER ROUNDUP
NATIONAL WEATHER SERVICE PHOENIX AZ
900 PM MST TUE MAY 31 2016

NOTE: FAIR INDICATES FEW OR NO CLOUDS BELOW 12,000 FEET WITH NO
SIGNIFICANT WEATHER AND/OR OBSTRUCTIONS TO VISIBILITY.

AZZ001>003-036-010500-
NORTHWEST ARIZONA

CITY           SKY/WX    TMP DP  RH WIND       PRES   REMARKS
KINGMAN        CLEAR     76  24  14 SW5       29.87R
$$

AZZ004>008-015-016-018-010500-
NORTH CENTRAL ARIZONA

CITY           SKY/WX    TMP DP  RH WIND       PRES   REMARKS
GRAND CANYON   CLEAR     52  27  38 CALM      30.08R
WILLIAMS       MOCLDY    59  27  29 SE6       30.16R
PRESCOTT       MOCLDY    74  29  19 W6        29.98R
FLAGSTAFF      PTCLDY    57  27  31 CALM      30.12R
PAYSON         PTCLDY    68  25  19 N5        30.02R
PAGE           CLEAR     79  19  10 S3        29.87R
$$

AZZ009>014-017-010500-
NORTHEAST ARIZONA

CITY           SKY/WX    TMP DP  RH WIND       PRES   REMARKS
WINSLOW        CLEAR     64  13  13 W8        29.94R
SAINT JOHNS    MOCLDY    67  29  24 S6        30.02R
WINDOW ROCK    MOCLDY    68  25  19 S7        30.06R
SHOW LOW       MOCLDY    57  28  33 S9        30.08R
$$

AZZ023-010500-
GREATER PHOENIX AREA

CITY           SKY/WX    TMP DP  RH WIND       PRES   REMARKS
PHOENIX        MOCLDY    92  26   9 W5        29.70R
BUCKEYE        PTCLDY    84  32  15 SW8       29.72R
LUKE AFB       PTCLDY    87  29  12 SW8       29.69R
DEER VALLEY    PTCLDY    89  25  10 SW5       29.73R
SCOTTSDALE     MOCLDY    91  24   9 W3        29.75R
MESA-GATEWAY   MOCLDY    90  25   9 W6        29.73R
CHANDLER       MOCLDY    91  21   8 S7        29.72R
$$

AZZ027-028-010500-
SOUTHWEST MARICOPA COUNTY AND PINAL COUNTY

CITY           SKY/WX    TMP DP  RH WIND       PRES   REMARKS
CASA GRANDE    CLOUDY    88  27  11 W6        29.75S
GILA BEND      MOCLDY    86  18   8 SW7       29.70R
$$

AZZ503-504-507>509-010500-
SOUTHEAST ARIZONA

CITY           SKY/WX    TMP DP  RH WIND       PRES   REMARKS
TUCSON         PTCLDY    84  24  11 NW6       29.84R
DAVIS-MONTHAN  MOCLDY    84  24  11 NW9       29.82R
NOGALES        PTCLDY    70  16  12 E3        29.93R
SIERRA VISTA   CLOUDY    71  12  10 W7        29.97R
DOUGLAS        PTCLDY    68  23  18 SE8       29.93R
SAFFORD        MOCLDY    82  32  16 E15       29.83R
$$

AZZ020-021-025-026-031-010500-
SOUTHWEST ARIZONA

CITY           SKY/WX    TMP DP  RH WIND       PRES   REMARKS
YUMA           PTCLDY    86  37  17 S10       29.70R
$$

CAZ031-033-041-043-047-048-061-010500-
SOUTHERN CALIFORNIA

CITY           SKY/WX    TMP DP  RH WIND       PRES   REMARKS
DOWNTOWN L.A.  CLOUDY    64  57  78 W6        29.88R
L.A. AIRPORT   CLOUDY    62  56  80 W8        29.88R
SAN DIEGO      CLOUDY    64  57  78 SW6       29.91R
BURBANK        CLEAR     61  57  87 S7        29.87R
ONTARIO        PTCLDY    64  55  72 W8        29.87R
RIVERSIDE      CLEAR     66  56  70 W8        29.87R
PALM SPRINGS   CLEAR     91  51  25 NW15      29.70R
EL CENTRO NAS  CLEAR     86  44  23 S12       29.67R
IMPERIAL       CLEAR     91  39  16 SE13      29.65R
BLYTHE         CLEAR     96  37  12 SW8       29.66R
NEEDLES        CLEAR     97  31   9 SW9       29.67R
$$

NVZ020-UTZ003-010500-
SOUTHERN NEVADA-UTAH

CITY           SKY/WX    TMP DP  RH WIND       PRES   REMARKS
LAS VEGAS      PTCLDY    93  31  11 CALM      29.72R
SALT LAKE CITY CLEAR     68  36  30 E5        30.05R
$$

NMZ009-TXZ055-010500-
NEW MEXICO-WEST TEXAS

CITY           SKY/WX    TMP DP  RH WIND       PRES   REMARKS
ALBUQUERQUE    CLOUDY    67  36  31 E8        30.04R
EL PASO        MOCLDY    76  40  27 N15       29.92R
$$


........................KEY........................
SKY/WX - SKY CONDITION/WEATHER
TMP    - TEMPERATURE IN FAHRENHEIT
DP     - DEW POINT IN FAHRENHEIT
RH     - RELATIVE HUMIDITY IN PERCENT
WIND   - DIRECTION AND SPEED IN MILES PER HOUR (MPH)
VRB    - VARIABLE WIND DIRECTION
PRES   - MEAN SEA LEVEL PRESSURE IN INCHES OF MERCURY
         F - FALLING PRESSURE   R - RISING PRESSURE
         S - STEADY PRESSURE
VSB    - VISIBILITY IN MILES
HX     - HEAT INDEX IN FAHRENHEIT
WCI    - WIND CHILL INDEX IN FAHRENHEIT
TC     - TEMPERATURE IN CELSIUS WHICH IS ALSO KNOWN AS
         TEMPERATURE IN CENTIGRADE
AFB    - AIR FORCE BASE
         LUKE AFB IS LUKE AIR FORCE BASE
         DAVIS-MONTHAN IS DAVIS-MONTHAN AIR FORCE BASE
NAS    - NAVAL AIR STATION
         EL CENTRO NAS IS EL CENTRO NAVAL AIR STATION
N/A    - NOT AVAILABLE




USA.gov is the U.S. government's official web portal to all federal, state and local government web resources and services.